Volver al catálogo

COSMOS 2251 DEB

ActivoLEO
NORAD 34610·DEBRIS·🇷🇺 Russia

Lanzado Jun 16, 1993 desde Plesetsk Cosmodrome

Loading…

Próximos Pases (próximas 24 horas)

TLE

ActualizadoSource: Space-Track

Época: Sep 14, 2026, 08:19 UTC

1 34610U 93036WF  26257.34719311  .00001500  00000-0  76957-3 0  9999
2 34610  74.0166 138.3861 0180001 206.4316 152.7558 14.08245324894380

Sigue COSMOS 2251 DEB en tiempo real con AllMySat

Download on the App Store